Regional Weather Roundup
Issued by NWS Sterling, VA

Home | Current Version | Previous Version | Graphics & Text | Print | Product List | Glossary Off
Versions: 1 2 3 4 5 6 7 8 9 10 11 12 13 14 15 16 17 18 19 20 21 22 23 24 25 26 27 28 29 30 31 32 33 34 35 36 37 38 39 40 41 42 43 44 45 46 47 48 49 50

113
ASUS41 KLWX 261111
RWRLWX

REGIONAL WEATHER ROUNDUP
NATIONAL WEATHER SERVICE BALTIMORE MD/WASHINGTON DC
700 AM EDT SUN MAR 26 2017

Note: "FAIR" indicates few or no clouds below 12,000 feet
with no significant weather and/or obstructions to visibility.
 TC=TEMPERATURE CELSIUS

 * =Non NWS site. Station does not report precipitation (e.g. rain,
    snow, etc.), thunder, or fog.

DCZ001-MDZ009-015-VAZ040>042-051-053>054-261200-
WASHINGTON METRO

CITY           SKY/WX    TMP DP  RH WIND       PRES   REMARKS
WASHINGTON NAT CLOUDY    49  44  83 E10       30.29R
DULLES         CLOUDY    48  41  76 E12       30.28R
ANDREWS AFB    CLOUDY    46  43  87 E12       30.28R
FT BELVOIR     CLOUDY    49  43  80 VRB6      30.29R
QUANTICO       CLOUDY    50  46  86 E10       30.29R
COLLEGE PARK*  CLOUDY    46  41  81 E9        30.30R
LEESBURG*      CLOUDY    48  45  87 E6        30.30R
MANASSAS*      CLOUDY    49  42  77 E8        30.28R

$$

MDZ006>007-011-014-261200-
BALTIMORE METRO

CITY           SKY/WX    TMP DP  RH WIND       PRES   REMARKS
BWI AIRPORT    CLOUDY    46  40  79 E15       30.31R
MD SCIENCE CTR   N/A     47  38  71 MISG      30.33R
MARTIN STATE   CLOUDY    46  43  87 E10       30.35R
ANNAPOLIS      CLOUDY    48  43  82 E13       30.31R
FORT MEADE*    CLOUDY    45  37  76 E10       30.34R

$$

MDZ012-015-019>023-261200-
MARYLAND EASTERN SHORE

CITY           SKY/WX    TMP DP  RH WIND       PRES   REMARKS
OCEAN CITY     CLOUDY    44  42  93 NE12G20   30.31R FOG
SALISBURY      CLOUDY    45  44  97 NE14      30.30R FOG
BAY BRIDGE AP* CLOUDY    46  41  81 E13G18    30.32R
CAMBRIDGE*     CLOUDY    45  43  93 E8G14     30.30R
EASTON*        CLOUDY    46  41  81 E16       30.34R

$$

MDZ017>025-261200-
SOUTHERN MARYLAND

CITY           SKY/WX    TMP DP  RH WIND       PRES   REMARKS
PATUXENT RIVER CLOUDY    47  47 100 E12       30.28R
ST INIGOES     CLOUDY    48  45  89 NE9       30.27R
LEONARDTOWN*   CLOUDY    46  43  87 E9        30.30R

$$

MDZ003>005-261200-
NORTH CENTRAL MARYLAND

CITY           SKY/WX    TMP DP  RH WIND       PRES   REMARKS
FREDERICK*     CLOUDY    48  43  81 NE5       30.33S
HAGERSTOWN APT MOCLDY    46  41  82 E7        30.28R
WESTMINSTER*   CLOUDY    45  39  81 E7        30.30S

$$

MDZ501>502-261200-
WESTERN MARYLAND

CITY           SKY/WX    TMP DP  RH WIND       PRES   REMARKS
OAKLAND*       FOG       45  45 100 SE14G22   30.16R VSB 3/4
CUMBERLAND*    PTCLDY    52  45  76 NE8       30.27R

$$

VAZ025>031-261200-
SHENANDOAH VALLEY

CITY           SKY/WX    TMP DP  RH WIND       PRES   REMARKS
WINCHESTER*    CLOUDY    46  41  81 E5        30.26R
FRONT ROYAL*   CLEAR     46  43  87 E12G17    30.23R
LURAY*         CLEAR     52  48  87 NE9       30.20R
NEW MARKET*    CLEAR     50  46  84 N14G20    30.19R
STAUNTON*      MOCLDY    42  40  95 CALM      30.20S
WAYNESBORO*    CLEAR     52  48  86 CALM      30.19R

$$

WVZ021-048>050-054>055-261200-
EASTERN WEST VIRGINIA PANHANDLE

CITY           SKY/WX    TMP DP  RH WIND       PRES   REMARKS
MARTINSBURG    CLOUDY    48  41  76 E8        30.27R
PETERSBURG*    PTCLDY    52  47  84 NW6       30.20R

$$

VAZ036>039-050-261200-
CENTRAL FOOTHILLS

CITY           SKY/WX    TMP DP  RH WIND       PRES   REMARKS
CHARLOTTESVILL CLOUDY    55  48  77 NE16      30.22R
CULPEPER*      MOCLDY    49  44  81 NE3       30.28R
ORANGE*        CLOUDY    50  45  81 N6        30.26R
GORDONSVILLE*  CLOUDY    53  49  87 NE10      30.23R
WARRENTON*     MOCLDY    49  40  72 NE5       30.27R

$$

VAZ055>057-261200-
NORTH AND CENTRAL PIEDMONT

CITY           SKY/WX    TMP DP  RH WIND       PRES   REMARKS
FREDERICKSBRG* MOCLDY    49  46  88 NE9       30.27R
STAFFORD*      CLOUDY    48  45  88 E7        30.31R

$$

NCZ024-NYZ072-PAZ021-071-VAZ022-071-261200-
OTHER REGIONAL OBSERVATIONS

CITY           SKY/WX    TMP DP  RH WIND       PRES   REMARKS
NEW YORK CITY  CLOUDY    38  31  76 NE13G23   30.44S
PHILADELPHIA   CLOUDY    43  37  79 E14       30.38R
PITTSBURGH     MOCLDY    56  50  80 SE8       30.07S
ROANOKE        MOCLDY    56  49  77 E8        30.19R
RICHMOND       MOCLDY    56  51  84 CALM      30.23R
RALEIGH        CLOUDY    53  50  89 CALM      30.22R

$$

ANZ530>537-261200-
MARINE OBSERVATIONS

STATION/POSITION TIME  TEMP    WIND        PRES
                       AIR SEA DIR/SP/G
                 (UTC) (F)     (DEG/KT/KT) (MB)
THOMAS PT LIGHT  1100   46 45   80/ 14/ 18   N/A
BALT KEY BRIDGE  1048   45      70/ 11/ 13 1026.9R
COVE POINT       1048   47     110/  9/ 12 1026.3R
LEWISETTA        1048   48 50   80/  9/ 13 1025.0R
SOLOMONS ISLAND  1042   47 47   80/ 11/ 13   N/A
PINEY POINT      1048           90/  8/ 10   N/A

$$





USA.gov is the U.S. government's official web portal to all federal, state and local government web resources and services.